When you browse on this site, cookies collect data to enhance your experience and personalize the content and advertising you see.
Visit our Privacy Policy to learn more. By continuing to use the site, you agree to this use of cookies and data.
  • In Hungary
  • List of Countries
  • For 7 days
  • Water Temperature
  • Weather Map
  • News
  • Weather Widgets
  • user-avatar
    Login

    Hourly Weather Nhlangano

    Today, 22 November, Friday

    Time Temperature Precipitation Wind Pressure Humidity
    00:00 +18°C° 0 mm 0 mps 672 mmHg 98%
    01:00 +18°C° 0 mm 0 mps 672 mmHg 97%
    02:00 +18°C° 0 mm 0 mps 672 mmHg 96%
    03:00 +18°C° 0 mm 0 mps 672 mmHg 96%
    04:00 +18°C° 0 mm 0 mps 672 mmHg 95%
    05:00 +18°C° 0 mm 0 mps 672 mmHg 95%
    06:00 +19°C° 0 mm 0 mps 673 mmHg 89%
    07:00 +23°C° 0 mm 1 mps 673 mmHg 83%
    08:00 +24°C° 0 mm 1 mps 673 mmHg 78%
    09:00 +25°C° 0.1 mm 1 mps 673 mmHg 74%
    10:00 +26°C° 0.1 mm 2 mps 673 mmHg 70%
    11:00 +26°C° 0.1 mm 2 mps 673 mmHg 67%
    12:00 +27°C° 0.2 mm 3 mps 673 mmHg 67%
    13:00 +27°C° 0.2 mm 3 mps 672 mmHg 68%
    14:00 +27°C° 0.2 mm 4 mps 672 mmHg 68%
    15:00 +26°C° 0.1 mm 4 mps 672 mmHg 72%
    16:00 +25°C° 0.1 mm 3 mps 672 mmHg 75%
    17:00 +25°C° 0.1 mm 3 mps 672 mmHg 79%
    18:00 +24°C° 0.1 mm 3 mps 672 mmHg 84%
    19:00 +23°C° 0.1 mm 2 mps 672 mmHg 89%
    20:00 +21°C° 0.1 mm 2 mps 672 mmHg 94%
    21:00 +21°C° 0.1 mm 2 mps 672 mmHg 95%
    22:00 +20°C° 0.1 mm 2 mps 673 mmHg 95%
    23:00 +20°C° 0.1 mm 2 mps 673 mmHg 96%

    Tomorrow, 23 November, Saturday

    Time Temperature Precipitation Wind Pressure Humidity
    00:00 +21°C° 0.1 mm 1 mps 673 mmHg 96%
    01:00 +21°C° 0.1 mm 1 mps 672 mmHg 95%
    02:00 +21°C° 0.1 mm 1 mps 672 mmHg 95%
    03:00 +20°C° 0 mm 1 mps 672 mmHg 95%
    04:00 +20°C° 0 mm 1 mps 672 mmHg 96%
    05:00 +20°C° 0 mm 1 mps 672 mmHg 96%
    06:00 +21°C° 0 mm 1 mps 672 mmHg 91%
    07:00 +21°C° 0 mm 2 mps 672 mmHg 86%
    08:00 +23°C° 0 mm 2 mps 672 mmHg 81%
    09:00 +26°C° 0 mm 2 mps 673 mmHg 69%
    10:00 +29°C° 0 mm 3 mps 673 mmHg 58%
    11:00 +33°C° 0 mm 3 mps 673 mmHg 47%
    12:00 +33°C° 0 mm 3 mps 672 mmHg 47%
    13:00 +33°C° 0 mm 3 mps 671 mmHg 46%
    14:00 +33°C° 0 mm 4 mps 671 mmHg 46%
    15:00 +29°C° 2.1 mm 3 mps 670 mmHg 55%
    16:00 +26°C° 2.1 mm 3 mps 670 mmHg 63%
    17:00 +23°C° 2.1 mm 2 mps 670 mmHg 72%
    18:00 +21°C° 1 mm 2 mps 671 mmHg 76%
    19:00 +20°C° 1 mm 2 mps 671 mmHg 80%
    20:00 +21°C° 1 mm 1 mps 672 mmHg 84%
    21:00 +21°C° 0.2 mm 1 mps 673 mmHg 85%
    22:00 +21°C° 0.2 mm 1 mps 673 mmHg 86%
    23:00 +21°C° 0.2 mm 1 mps 673 mmHg 88%

    Day after tomorrow, 24 November, Sunday

    Time Temperature Precipitation Wind Pressure Humidity
    00:00 +20°C° 0 mm 1 mps 673 mmHg 90%
    01:00 +18°C° 0 mm 0 mps 672 mmHg 93%
    02:00 +17°C° 0 mm 0 mps 672 mmHg 95%
    03:00 +17°C° 0 mm 0 mps 672 mmHg 95%
    04:00 +17°C° 0 mm 0 mps 672 mmHg 95%
    05:00 +17°C° 0 mm 0 mps 673 mmHg 95%
    06:00 +18°C° 0 mm 0 mps 673 mmHg 89%
    07:00 +20°C° 0 mm 0 mps 674 mmHg 82%
    08:00 +24°C° 0 mm 1 mps 674 mmHg 76%
    09:00 +25°C° 0 mm 1 mps 674 mmHg 69%
    10:00 +27°C° 0 mm 2 mps 674 mmHg 63%
    11:00 +28°C° 0 mm 2 mps 674 mmHg 57%
    12:00 +28°C° 0.1 mm 3 mps 673 mmHg 58%
    13:00 +28°C° 0.1 mm 4 mps 673 mmHg 59%
    14:00 +28°C° 0.1 mm 4 mps 672 mmHg 60%
    15:00 +26°C° 2.2 mm 4 mps 672 mmHg 70%
    16:00 +25°C° 2.2 mm 4 mps 671 mmHg 80%
    17:00 +22°C° 2.2 mm 4 mps 671 mmHg 89%
    18:00 +21°C° 0.3 mm 3 mps 671 mmHg 92%
    19:00 +21°C° 0.3 mm 2 mps 672 mmHg 94%
    20:00 +21°C° 0.3 mm 1 mps 672 mmHg 96%
    21:00 +21°C° 0.2 mm 1 mps 673 mmHg 97%
    22:00 +21°C° 0.2 mm 1 mps 673 mmHg 97%
    23:00 +21°C° 0.2 mm 1 mps 674 mmHg 97%

    25 November, Monday

    Time Temperature Precipitation Wind Pressure Humidity
    00:00 +21°C° 0.9 mm 1 mps 674 mmHg 97%
    01:00 +21°C° 0.9 mm 1 mps 674 mmHg 97%
    02:00 +20°C° 0.9 mm 1 mps 673 mmHg 98%
    03:00 +20°C° 0.4 mm 1 mps 674 mmHg 97%
    04:00 +20°C° 0.4 mm 1 mps 674 mmHg 97%
    05:00 +20°C° 0.4 mm 1 mps 674 mmHg 96%
    06:00 +20°C° 0.1 mm 1 mps 675 mmHg 93%
    07:00 +20°C° 0.1 mm 1 mps 675 mmHg 91%
    08:00 +21°C° 0.1 mm 1 mps 675 mmHg 88%
    09:00 +20°C° 0 mm 2 mps 675 mmHg 86%
    10:00 +20°C° 0 mm 2 mps 675 mmHg 83%
    11:00 +20°C° 0 mm 2 mps 674 mmHg 81%
    12:00 +21°C° 0 mm 3 mps 674 mmHg 79%
    13:00 +21°C° 0 mm 3 mps 673 mmHg 77%
    14:00 +22°C° 0 mm 3 mps 673 mmHg 75%
    15:00 +21°C° 0 mm 3 mps 673 mmHg 79%
    16:00 +20°C° 0 mm 2 mps 673 mmHg 83%
    17:00 +19°C° 0 mm 2 mps 673 mmHg 86%
    18:00 +19°C° 0.1 mm 2 mps 673 mmHg 88%
    19:00 +18°C° 0.1 mm 2 mps 674 mmHg 90%
    20:00 +19°C° 0.1 mm 1 mps 674 mmHg 92%
    21:00 +18°C° 0 mm 1 mps 674 mmHg 92%
    22:00 +18°C° 0 mm 1 mps 675 mmHg 92%
    23:00 +18°C° 0 mm 1 mps 675 mmHg 92%

    26 November, Tuesday

    Time Temperature Precipitation Wind Pressure Humidity
    00:00 +18°C° 0 mm 1 mps 675 mmHg 92%
    01:00 +18°C° 0 mm 1 mps 674 mmHg 92%
    02:00 +16°C° 0 mm 0 mps 674 mmHg 91%
    03:00 +15°C° 0 mm 0 mps 674 mmHg 92%
    04:00 +15°C° 0 mm 0 mps 674 mmHg 92%
    05:00 +15°C° 0 mm 0 mps 674 mmHg 93%
    06:00 +17°C° 0 mm 0 mps 675 mmHg 84%
    07:00 +20°C° 0 mm 0 mps 676 mmHg 76%
    08:00 +22°C° 0 mm 0 mps 677 mmHg 67%
    09:00 +25°C° 0 mm 1 mps 677 mmHg 62%
    10:00 +26°C° 0 mm 2 mps 677 mmHg 57%
    11:00 +28°C° 0 mm 2 mps 676 mmHg 52%
    12:00 +28°C° 0 mm 3 mps 676 mmHg 52%
    13:00 +28°C° 0 mm 3 mps 676 mmHg 52%
    14:00 +28°C° 0 mm 4 mps 675 mmHg 53%
    15:00 +27°C° 0 mm 4 mps 675 mmHg 57%
    16:00 +26°C° 0 mm 4 mps 674 mmHg 61%
    17:00 +25°C° 0 mm 4 mps 674 mmHg 66%
    18:00 +22°C° 0 mm 4 mps 674 mmHg 73%
    19:00 +21°C° 0 mm 3 mps 675 mmHg 80%
    20:00 +19°C° 0 mm 3 mps 675 mmHg 87%
    21:00 +19°C° 0 mm 2 mps 675 mmHg 88%
    22:00 +18°C° 0 mm 2 mps 675 mmHg 89%
    23:00 +19°C° 0 mm 1 mps 676 mmHg 90%

    27 November, Wednesday

    Time Temperature Precipitation Wind Pressure Humidity
    00:00 +19°C° 0 mm 1 mps 675 mmHg 90%
    01:00 +19°C° 0 mm 1 mps 675 mmHg 91%
    02:00 +18°C° 0 mm 1 mps 675 mmHg 92%
    03:00 +18°C° 0 mm 1 mps 675 mmHg 92%
    04:00 +18°C° 0 mm 1 mps 675 mmHg 92%
    05:00 +18°C° 0 mm 1 mps 675 mmHg 91%
    06:00 +20°C° 0 mm 1 mps 675 mmHg 85%
    07:00 +21°C° 0 mm 1 mps 676 mmHg 79%
    08:00 +23°C° 0 mm 1 mps 677 mmHg 72%
    09:00 +25°C° 0 mm 1 mps 677 mmHg 65%
    10:00 +28°C° 0 mm 2 mps 676 mmHg 57%
    11:00 +30°C° 0 mm 2 mps 676 mmHg 50%
    12:00 +31°C° 0 mm 2 mps 676 mmHg 47%
    13:00 +33°C° 0 mm 3 mps 675 mmHg 45%
    14:00 +33°C° 0 mm 3 mps 674 mmHg 43%
    15:00 +32°C° 0 mm 4 mps 674 mmHg 48%
    16:00 +30°C° 0 mm 4 mps 673 mmHg 54%
    17:00 +28°C° 0 mm 4 mps 673 mmHg 59%
    18:00 +26°C° 0 mm 3 mps 673 mmHg 66%
    19:00 +25°C° 0 mm 2 mps 673 mmHg 72%
    20:00 +23°C° 0 mm 1 mps 673 mmHg 79%
    21:00 +22°C° 0 mm 1 mps 673 mmHg 82%
    22:00 +21°C° 0 mm 1 mps 673 mmHg 84%
    23:00 +21°C° 0 mm 1 mps 673 mmHg 87%
    Show more